Location: *
(51.1248°S, 108.4023°W)
Time: 05:11:38
(UTC+00:00)

COSMO-SKYMED 1 - Pass Details

Date: 15 June 2021
Orbit: 621 x 624 km, 97.9° (Epoch: 31 July)

Event Time Altitude Azimuth Distance (km) Brightness Sun altitude
Rises 12:51:24 0° 160° (SSE) 2,950 6.2 -21.4°
Reaches altitude 10° 12:53:46 10° 152° (SSE) 2,034 5.4 -21.1°
Maximum altitude 12:57:54 38° 83° (E) 979 4.1 -20.4°
Drops below altitude 10° 13:01:59 10° 14° (NNE) 2,009 5.5 -19.8°
Sets 13:04:17 0° 6° (N) 2,908 6.3 -19.5°
